User: anonymous   Login
Location: Wellington
(41.3000°S, 174.7830°E)
Time: 20:44:38
(UTC+13:00)
Language:

BREEZE-M DEB (TANK) - Orbit

View from above orbital plane
View from above orbital plane
View from above satellite
View from above satellite

Ground track
Ground track

The orbit data is extracted from the following two-line orbital elements,

1 31103U 07009B   19083.55895790  .00000661  00000-0  12823-3 0  9995
2 31103  49.3939 162.7513 5519660 321.9156   9.7271  4.76595931203528
Epoch (UTC): 24 March 2019 13:24:53
Eccentricity: 0.5519660
inclination: 49.3939°
perigee height: 304 km
apogee height: 16770 km
right ascension of ascending node: 162.7513°
argument of perigee: 321.9156°
revolutions per day: 4.76595931
mean anomaly at epoch: 9.7271°
orbit number at epoch: 20352

The dashed part of the orbit path shows where the satellite is in the earth's shadow,  

DLR